Wind_Speed
19 18 18 17 17 16 16 16 16 17 17 18 19 20 21 22 23 24 25 27 28 29 29 30 31 31 31 31 31 31 31 31 32 31 31 31 31 30 30 30 29 29 29
21 21 20 20 19 19 19 19 19 19 20 21 21 22 23 24 25 26 27 29 30 31 31 31 32 32 32 32 32 33 33 33 33 33 32 32 32 32 31 31 31 30 30
24 23 23 22 22 21 21 21 22 22 23 23 24 25 25 26 27 28 30 31 32 32 33 33 33 33 33 33 33 34 34 33 34 34 34 33 33 33 33 33 32 32 31
27 27 26 25 24 24 24 24 24 25 25 26 26 27 28 29 30 31 32 33 33 33 34 34 34 35 35 35 35 35 34 35 35 35 35 34 34 34 34 34 33 33 33
31 30 29 28 28 27 27 27 27 28 28 28 29 29 30 31 32 33 33 34 35 35 35 36 36 36 36 36 36 35 35 36 36 36 36 35 35 35 35 35 34 34 33
34 33 32 32 31 31 31 30 30 31 31 31 31 32 32 33 34 34 35 36 37 37 37 38 37 37 37 37 36 36 36 37 37 36 36 36 36 36 35 35 35 34 34
37 37 36 36 35 34 34 34 34 33 33 34 34 34 35 35 36 36 37 38 38 39 40 40 39 39 38 38 37 37 37 37 37 37 37 36 36 36 36 36 36 34 34
39 39 39 38 38 38 38 38 37 37 37 37 38 38 37 37 37 37 38 39 40 41 41 41 41 41 40 39 38 38 38 38 38 37 37 37 37 36 36 36 35 35 34
42 41 41 41 41 41 41 41 41 40 40 40 40 41 41 40 39 38 39 40 41 41 42 42 42 41 41 40 39 39 39 39 38 38 37 37 37 37 36 35 35 35 34
44 43 43 43 44 44 43 44 44 44 43 43 43 43 43 43 43 42 41 41 41 41 42 42 42 41 40 39 39 39 40 40 39 38 38 37 37 36 36 36 35 34 34
45 45 45 45 45 45 45 45 46 46 46 45 45 44 44 44 45 45 44 43 43 42 42 42 41 40 40 40 40 40 40 39 39 38 38 37 36 36 35 35 34 33 32
47 48 48 47 47 47 47 48 48 48 47 47 47 47 46 46 46 46 46 45 44 43 43 42 41 40 40 40 40 40 40 39 38 38 37 36 35 35 34 34 33 33 32
50 50 51 50 50 50 50 50 50 50 49 49 48 48 47 47 47 47 46 45 45 44 43 42 40 40 41 41 40 40 39 39 38 37 36 35 34 34 34 33 33 32 31
52 52 52 53 53 52 52 52 51 51 51 50 49 49 48 48 47 47 46 46 45 44 43 41 41 41 42 41 41 40 39 38 37 36 35 34 34 34 33 32 32 31 31
52 52 52 53 54 54 53 53 52 52 51 50 50 50 49 47 47 46 46 46 45 43 42 41 41 41 41 41 40 38 38 37 36 35 34 34 33 33 32 32 31 31 30
53 53 53 53 53 52 51 51 51 51 51 50 49 48 47 47 47 46 46 45 43 43 42 42 41 40 41 40 38 38 37 36 35 34 34 33 33 32 31 31 31 31 30
52 51 51 51 51 51 52 52 51 50 49 48 48 47 47 47 46 45 44 44 43 43 42 42 42 40 40 38 38 37 36 35 34 33 33 33 32 31 31 31 31 31 31
51 51 50 51 51 51 51 50 49 48 48 48 48 47 47 46 46 45 44 43 43 42 42 41 40 39 38 37 36 36 35 34 33 33 33 32 32 32 31 31 31 31 31
50 50 50 50 51 51 51 50 50 49 49 48 47 46 45 45 44 43 43 43 42 41 40 39 39 38 37 36 35 34 34 33 32 32 32 32 32 32 32 32 32 32 33
49 49 49 49 49 49 49 49 49 48 48 47 46 45 44 43 43 42 42 41 40 39 38 38 38 37 36 35 34 33 33 33 32 32 32 32 32 32 32 33 33 34 34
47 47 47 47 48 47 47 47 46 46 46 45 45 44 43 42 41 41 40 39 39 38 38 37 37 35 34 33 33 33 33 33 33 32 32 32 33 33 34 34 35 35 36
44 44 44 44 45 45 45 44 44 44 44 43 43 42 41 40 40 39 39 38 38 37 37 36 35 34 33 33 33 33 33 33 33 33 33 33 34 34 35 35 36 36 37
42 43 43 43 43 43 43 43 43 42 41 40 40 40 39 39 38 38 38 37 37 36 35 35 34 33 33 33 33 33 33 33 33 33 33 34 35 35 36 36 37 37 38
40 41 41 41 41 41 42 41 41 41 41 40 39 39 38 38 38 38 37 36 35 35 34 34 33 33 33 33 33 33 33 33 33 34 34 35 35 36 37 37 38 39 39
39 39 39 40 40 40 40 40 39 39 39 39 38 38 37 37 37 36 35 35 34 34 33 33 32 32 33 33 33 33 33 33 34 35 35 36 36 37 38 39 39 40 40
37 38 38 38 39 39 39 39 38 38 38 37 37 36 36 36 36 35 34 34 33 33 32 32 32 32 33 33 33 33 33 34 35 36 36 36 37 38 39 40 41 41 41
Wind_Direction
249 253 257 262 267 271 276 280 284 289 293 297 300 303 306 309 311 313 315 317 317 318 319 319 320 320 319 319 318 317 316 315 315 315 313 312 311 310 308 307 305 304 302
251 254 258 262 266 270 274 278 283 287 291 295 298 301 304 306 308 310 311 313 315 315 316 316 317 317 317 317 316 315 314 314 313 313 312 311 309 308 307 306 305 304 302
254 256 259 263 266 270 274 278 282 286 290 293 296 299 301 303 305 306 308 310 312 313 313 314 315 315 314 314 313 313 312 312 311 311 310 309 308 307 307 306 304 303 301
256 259 261 264 267 271 275 278 282 285 288 290 294 297 298 300 302 304 306 307 309 310 310 311 312 312 312 311 311 311 310 310 309 309 308 308 307 307 306 305 303 302 300
258 261 263 266 269 272 275 278 281 283 286 288 291 294 296 298 300 302 303 305 306 307 307 308 308 309 309 309 309 308 308 307 307 307 307 306 306 305 305 304 302 301 299
259 262 265 267 270 272 275 277 280 283 285 287 290 292 295 297 298 299 300 302 303 304 305 306 306 307 307 307 307 307 306 306 306 305 305 304 304 304 304 303 302 300 298
261 263 265 268 270 272 275 277 279 282 284 287 289 291 293 295 296 297 298 300 301 303 304 305 305 306 305 305 306 305 305 305 304 304 304 303 304 303 303 303 301 300 298
263 265 267 268 270 273 275 277 279 281 284 286 288 290 290 292 294 295 297 298 299 301 302 303 304 304 304 304 304 304 304 304 303 302 302 302 302 302 302 301 301 299 298
263 265 266 269 271 273 275 277 279 281 283 286 288 290 290 291 291 293 294 296 297 299 300 301 302 302 302 303 303 303 303 303 302 301 301 301 301 301 301 300 300 299 298
263 264 265 268 271 273 275 276 278 281 283 285 287 288 289 291 292 292 293 294 296 297 298 299 299 299 300 301 301 301 302 302 302 301 301 300 300 300 300 300 299 298 297
264 266 267 268 270 272 275 277 279 281 283 285 286 287 289 290 291 292 293 294 295 295 297 298 297 298 299 299 300 300 301 301 300 300 300 300 299 300 300 300 299 299 298
264 266 267 269 270 272 274 277 279 280 282 283 285 286 287 288 289 290 291 293 293 295 296 296 295 296 297 298 299 300 300 299 299 299 299 299 299 300 300 299 299 299 298
265 266 267 269 270 272 273 276 277 278 279 282 284 285 286 287 287 288 290 291 292 293 294 294 293 295 297 297 298 299 299 299 299 299 298 298 299 300 300 299 299 300 298
265 265 267 269 271 272 274 275 277 277 279 281 283 283 284 285 285 287 288 290 291 292 292 293 294 295 296 297 298 298 298 298 298 298 298 298 299 300 300 299 299 299 298
264 265 268 270 271 272 274 275 276 278 279 280 281 282 282 282 284 286 288 289 290 290 290 291 293 294 295 296 297 297 297 297 297 297 298 298 299 299 299 299 299 299 298
266 267 269 271 272 273 274 275 276 276 278 278 279 279 280 281 283 285 286 287 288 288 289 291 292 293 294 295 295 296 296 296 296 297 297 298 299 299 299 299 299 299 298
266 267 269 270 271 273 274 274 275 276 276 277 278 279 280 282 283 283 284 285 286 287 289 290 291 291 293 293 294 294 294 295 296 296 297 298 298 298 298 298 298 298 298
266 268 270 271 272 273 274 274 275 275 276 277 278 279 280 281 281 281 282 283 284 286 287 289 289 291 291 292 293 293 294 295 295 296 297 297 297 297 297 297 297 297 298
268 269 270 272 272 273 274 275 276 276 277 278 278 279 280 280 280 280 281 281 282 284 286 287 288 289 290 291 292 292 293 294 294 295 296 296 296 296 296 297 297 297 297
269 270 270 272 273 273 274 275 275 276 277 277 278 278 279 279 279 279 279 280 281 283 284 286 287 289 289 289 290 292 292 293 294 295 295 296 296 296 296 297 297 297 297
268 269 270 271 272 273 274 275 276 276 276 276 276 277 277 276 277 277 278 279 280 281 282 284 286 287 287 288 289 290 292 293 294 295 295 295 296 296 296 297 297 297 297
268 269 270 271 272 272 273 274 274 275 275 275 275 274 274 274 276 277 277 278 280 280 281 283 284 285 286 288 289 290 292 292 293 294 294 295 295 296 296 297 297 297 297
268 269 269 270 271 272 272 272 272 273 273 273 273 273 272 273 274 275 276 277 279 280 281 282 283 284 285 287 288 290 290 291 292 293 294 295 295 295 297 297 298 298 298
270 270 270 271 271 271 272 272 273 273 272 271 272 272 273 273 274 275 276 277 278 279 280 281 282 283 284 286 288 289 290 291 292 293 294 294 295 295 296 297 298 299 299
271 271 271 271 271 271 272 272 272 272 271 271 271 271 272 273 273 274 275 276 277 278 279 280 281 282 285 287 288 289 290 291 292 294 294 294 295 296 296 297 298 299 300
272 272 273 273 272 272 272 272 271 271 270 271 271 271 272 272 273 274 274 275 276 277 278 279 281 283 285 287 288 289 290 291 293 294 294 295 295 296 297 298 299 300 301
Height
5873 5874 5875 5875 5876 5876 5876 5876 5876 5876 5875 5875 5874 5873 5872 5870 5869 5867 5866 5864 5861 5859 5857 5854 5852 5849 5846 5844 5841 5838 5835 5832 5829 5826 5824 5821 5818 5816 5813 5811 5808 5806 5804
5869 5870 5871 5871 5872 5872 5872 5872 5872 5872 5871 5871 5870 5869 5868 5866 5865 5863 5861 5859 5857 5854 5852 5850 5847 5844 5841 5838 5835 5833 5830 5827 5824 5821 5818 5815 5812 5810 5807 5805 5802 5800 5798
5864 5865 5866 5867 5867 5868 5868 5868 5868 5867 5867 5866 5865 5864 5863 5861 5860 5858 5856 5854 5852 5849 5847 5844 5842 5839 5836 5833 5830 5827 5824 5821 5818 5815 5812 5809 5806 5804 5801 5798 5796 5793 5791
5859 5860 5861 5862 5863 5863 5863 5863 5863 5863 5862 5861 5861 5859 5858 5856 5854 5853 5851 5849 5846 5844 5841 5839 5836 5833 5830 5827 5824 5821 5818 5815 5811 5808 5806 5803 5800 5797 5794 5792 5789 5787 5784
5853 5855 5856 5857 5857 5858 5858 5858 5858 5857 5857 5856 5855 5854 5853 5851 5849 5847 5845 5842 5840 5838 5835 5833 5830 5827 5824 5821 5818 5815 5811 5808 5805 5802 5799 5796 5793 5790 5788 5785 5782 5779 5777
5847 5848 5850 5850 5851 5852 5852 5852 5852 5851 5850 5850 5849 5848 5846 5845 5843 5841 5838 5836 5833 5831 5828 5826 5823 5820 5817 5814 5811 5808 5805 5801 5798 5795 5791 5789 5786 5783 5780 5777 5775 5772 5770
5840 5842 5843 5844 5844 5845 5845 5845 5845 5844 5844 5843 5842 5841 5840 5838 5836 5834 5831 5829 5826 5824 5821 5818 5816 5813 5810 5807 5804 5800 5797 5794 5790 5787 5784 5781 5778 5775 5772 5769 5767 5764 5762
5833 5835 5836 5836 5837 5838 5838 5837 5837 5837 5836 5835 5834 5833 5833 5832 5829 5827 5824 5822 5819 5816 5813 5811 5808 5805 5802 5799 5796 5793 5789 5786 5783 5780 5777 5774 5771 5768 5765 5762 5759 5756 5754
5825 5827 5828 5828 5829 5830 5830 5830 5829 5829 5828 5827 5826 5825 5824 5823 5822 5820 5817 5814 5811 5808 5805 5802 5800 5797 5794 5791 5788 5785 5781 5778 5775 5772 5769 5766 5763 5760 5757 5754 5751 5748 5745
5817 5818 5819 5820 5821 5821 5821 5821 5821 5820 5820 5819 5817 5816 5815 5813 5812 5811 5809 5806 5803 5800 5797 5794 5791 5788 5785 5783 5780 5776 5773 5770 5767 5764 5761 5758 5755 5751 5749 5746 5743 5740 5737
5808 5809 5810 5811 5812 5812 5812 5812 5811 5811 5810 5810 5809 5807 5806 5804 5802 5800 5799 5797 5795 5792 5789 5786 5783 5780 5777 5774 5771 5768 5765 5762 5759 5755 5752 5749 5746 5743 5741 5738 5735 5732 5730
5799 5800 5800 5801 5802 5802 5802 5802 5802 5801 5801 5800 5799 5798 5796 5795 5793 5791 5789 5787 5785 5783 5780 5777 5774 5771 5768 5766 5763 5760 5757 5753 5750 5747 5744 5741 5738 5735 5733 5730 5727 5725 5722
5789 5790 5791 5791 5792 5792 5792 5792 5792 5791 5790 5790 5788 5787 5786 5785 5783 5781 5779 5777 5775 5773 5770 5768 5765 5762 5759 5757 5754 5751 5748 5744 5741 5739 5736 5733 5730 5727 5725 5722 5719 5717 5714
5778 5779 5780 5780 5781 5781 5781 5781 5781 5780 5780 5779 5778 5777 5776 5774 5773 5771 5769 5767 5765 5763 5761 5758 5755 5752 5750 5747 5744 5742 5738 5735 5733 5730 5727 5724 5722 5719 5717 5714 5712 5709 5707
5767 5768 5769 5770 5770 5770 5770 5770 5770 5769 5769 5768 5767 5766 5765 5764 5762 5760 5758 5757 5755 5753 5751 5749 5746 5743 5740 5738 5735 5732 5730 5727 5724 5721 5719 5716 5714 5711 5708 5706 5704 5701 5699
5756 5757 5757 5758 5758 5758 5758 5758 5758 5758 5757 5757 5756 5755 5754 5753 5751 5750 5748 5746 5744 5743 5741 5739 5736 5734 5731 5728 5726 5723 5721 5718 5715 5713 5710 5708 5706 5703 5701 5698 5696 5694 5691
5744 5744 5745 5746 5746 5746 5746 5746 5746 5746 5745 5745 5744 5743 5742 5741 5740 5739 5737 5736 5734 5732 5731 5729 5726 5724 5721 5719 5717 5714 5712 5709 5707 5704 5702 5700 5697 5695 5693 5690 5688 5686 5683
5732 5733 5733 5734 5734 5735 5734 5734 5734 5734 5734 5733 5733 5732 5731 5730 5729 5727 5726 5725 5723 5722 5720 5719 5716 5714 5712 5710 5707 5705 5703 5700 5698 5696 5694 5691 5689 5687 5684 5682 5680 5677 5675
5720 5721 5721 5722 5722 5723 5723 5722 5722 5722 5722 5722 5721 5720 5719 5718 5717 5716 5715 5714 5713 5711 5710 5709 5707 5705 5702 5700 5698 5696 5694 5692 5689 5687 5685 5683 5680 5678 5676 5674 5671 5669 5666
5709 5709 5710 5710 5710 5711 5711 5710 5710 5710 5710 5710 5709 5708 5708 5707 5706 5705 5704 5703 5702 5701 5700 5699 5697 5695 5693 5691 5689 5687 5685 5683 5681 5679 5676 5674 5672 5669 5667 5665 5662 5660 5657
5697 5698 5698 5698 5699 5699 5699 5698 5698 5698 5698 5698 5697 5697 5696 5696 5695 5694 5693 5693 5692 5691 5690 5689 5687 5685 5684 5682 5680 5678 5676 5674 5672 5670 5668 5665 5663 5661 5658 5655 5653 5650 5647
5686 5686 5687 5687 5687 5687 5687 5687 5687 5687 5686 5686 5686 5685 5685 5684 5684 5683 5683 5682 5682 5681 5680 5679 5678 5676 5674 5673 5671 5669 5668 5666 5663 5661 5659 5656 5654 5651 5648 5646 5643 5640 5637
5675 5675 5675 5675 5675 5675 5675 5675 5675 5675 5675 5675 5675 5674 5674 5674 5673 5673 5673 5672 5671 5671 5670 5669 5668 5667 5665 5664 5662 5660 5658 5656 5654 5652 5649 5647 5644 5641 5639 5635 5632 5629 5626
5664 5664 5664 5664 5664 5664 5664 5664 5664 5664 5664 5664 5664 5664 5664 5663 5663 5663 5662 5662 5662 5661 5660 5659 5658 5657 5656 5654 5652 5651 5649 5647 5645 5642 5640 5637 5634 5631 5628 5625 5622 5618 5615
5653 5653 5653 5653 5653 5653 5653 5653 5653 5653 5653 5653 5653 5653 5653 5653 5653 5653 5652 5652 5652 5651 5650 5649 5648 5647 5646 5644 5643 5641 5639 5637 5635 5633 5630 5627 5624 5621 5618 5614 5611 5607 5603
5643 5643 5642 5642 5642 5642 5642 5642 5642 5642 5642 5643 5643 5643 5643 5643 5643 5642 5642 5642 5642 5641 5641 5640 5639 5638 5636 5635 5633 5632 5630 5628 5625 5623 5619 5617 5613 5610 5607 5603 5599 5595 5591